| time (UTC) | temp F | wind direction | speed MPH | gust MPH | rain 1hr in | rain 24hr in | rain mn in | humidity % | barometer mb |
| 20260505074027 | 62 | 108 | 4.0 | 12.0 | 0.00 | 0.00 | 0.00 | 43 | 1017.5 |
| 20260505073529 | 62 | 120 | 4.0 | 10.0 | 0.00 | 0.00 | 0.00 | 44 | 1017.4 |
| 20260505073042 | 62 | 134 | 4.0 | 9.0 | 0.00 | 0.00 | 0.00 | 45 | 1017.5 |
| 20260505072526 | 62 | 186 | 3.0 | 9.0 | 0.00 | 0.00 | 0.00 | 46 | 1017.4 |
| 20260505072027 | 61 | 119 | 3.0 | 10.0 | 0.00 | 0.00 | 0.00 | 46 | 1017.5 |
| 20260505071541 | 61 | 89 | 6.0 | 10.0 | 0.00 | 0.00 | 0.00 | 46 | 1017.5 |
| 20260505071026 | 61 | 112 | 5.0 | 11.0 | 0.00 | 0.00 | 0.00 | 47 | 1017.6 |
| 20260505070527 | 60 | 79 | 4.0 | 12.0 | 0.00 | 0.00 | 0.00 | 48 | 1017.6 |
| 20260505070040 | 60 | 117 | 5.0 | 12.0 | 0.00 | 0.00 | 0.00 | 48 | 1017.7 |
| 20260505065526 | 60 | 94 | 3.0 | 7.0 | 0.00 | 0.00 | 0.00 | 49 | 1017.8 |
| 20260505065026 | 60 | 113 | 4.0 | 8.0 | 0.00 | 0.00 | 0.00 | 49 | 1017.9 |
| 20260505064539 | 60 | 73 | 3.0 | 8.0 | 0.00 | 0.00 | 0.00 | 51 | 1017.9 |
| 20260505064028 | 60 | 155 | 3.0 | 8.0 | 0.00 | 0.00 | 0.00 | 50 | 1017.9 |
| 20260505063527 | 60 | 98 | 4.0 | 8.0 | 0.00 | 0.00 | 0.00 | 51 | 1017.9 |
| 20260505063042 | 59 | 83 | 3.0 | 10.0 | 0.00 | 0.00 | 0.00 | 51 | 1017.9 |
| 20260505062526 | 59 | 102 | 3.0 | 10.0 | 0.00 | 0.00 | 0.00 | 53 | 1017.9 |
| 20260505062027 | 59 | 75 | 4.0 | 10.0 | 0.00 | 0.00 | 0.00 | 53 | 1017.8 |
| 20260505061559 | 58 | 129 | 2.0 | 8.0 | 0.00 | 0.00 | 0.00 | 54 | 1017.8 |
| 20260505061026 | 58 | 98 | 3.0 | 8.0 | 0.00 | 0.00 | 0.00 | 54 | 1017.6 |
| 20260505060527 | 58 | 79 | 2.0 | 6.0 | 0.00 | 0.00 | 0.00 | 54 | 1017.7 |
| 20260505060045 | 58 | 127 | 1.0 | 6.0 | 0.00 | 0.00 | 0.00 | 56 | 1017.7 |
| 20260505055527 | 57 | 115 | 1.0 | 5.0 | 0.00 | 0.00 | 0.00 | 56 | 1017.6 |
| 20260505055029 | 56 | 115 | 2.0 | 6.0 | 0.00 | 0.00 | 0.00 | 58 | 1017.5 |
| 20260505054555 | 55 | 108 | 3.0 | 6.0 | 0.00 | 0.00 | 0.00 | 58 | 1017.6 |
| 20260505054027 | 55 | 113 | 1.0 | 4.0 | 0.00 | 0.00 | 0.00 | 60 | 1017.6 |
| 20260505053527 | 55 | 114 | 0.0 | 2.0 | 0.00 | 0.00 | 0.00 | 62 | 1017.6 |
| 20260505053040 | 54 | 103 | 0.0 | 4.0 | 0.00 | 0.00 | 0.00 | 62 | 1017.6 |
| 20260505052526 | 54 | 0 | 0.0 | 4.0 | 0.00 | 0.00 | 0.00 | 63 | 1017.6 |
| 20260505052027 | 53 | 139 | 2.0 | 4.0 | 0.00 | 0.00 | 0.00 | 64 | 1017.6 |
| 20260505051538 | 51 | 127 | 2.0 | 3.0 | 0.00 | 0.00 | 0.00 | 67 | 1017.5 |
| 20260505051055 | 50 | 116 | 1.0 | 3.0 | 0.00 | 0.00 | 0.00 | 68 | 1017.5 |
| 20260505050527 | 51 | 63 | 0.0 | 4.0 | 0.00 | 0.00 | 0.00 | 67 | 1017.5 |
| 20260505041539 | 48 | 106 | 1.0 | 3.0 | 0.00 | 0.00 | 0.00 | 71 | 1017.3 |
| 20260505041025 | 47 | 105 | 0.0 | 2.0 | 0.00 | 0.00 | 0.00 | 72 | 1017.3 |
| 20260505040527 | 48 | 0 | 0.0 | 1.0 | 0.00 | 0.00 | 0.00 | 71 | 1017.2 |
| 20260505040041 | 48 | 120 | 0.0 | 1.0 | 0.00 | 0.00 | 0.00 | 70 | 1017.2 |
| 20260505035529 | 48 | 0 | 0.0 | 3.0 | 0.00 | 0.00 | 0.00 | 69 | 1017.3 |
| 20260505035026 | 49 | 0 | 0.0 | 4.0 | 0.00 | 0.00 | 0.00 | 68 | 1017.4 |
| 20260505034538 | 49 | 106 | 1.0 | 4.0 | 0.00 | 0.00 | 0.00 | 67 | 1017.3 |
| 20260505034029 | 50 | 134 | 1.0 | 4.0 | 0.00 | 0.00 | 0.00 | 67 | 1017.3 |
| 20260505033531 | 49 | 106 | 2.0 | 4.0 | 0.00 | 0.00 | 0.00 | 69 | 1017.3 |
| 20260505033048 | 48 | 122 | 1.0 | 4.0 | 0.00 | 0.00 | 0.00 | 70 | 1017.3 |
| 20260505032526 | 48 | 0 | 0.0 | 4.0 | 0.00 | 0.00 | 0.00 | 69 | 1017.3 |
| 20260505032028 | 49 | 0 | 2.0 | 4.0 | 0.00 | 0.00 | 0.00 | 68 | 1017.3 |
| 20260505031540 | 48 | 94 | 1.0 | 4.0 | 0.00 | 0.00 | 0.00 | 69 | 1017.3 |
| 20260505031027 | 49 | 134 | 1.0 | 4.0 | 0.00 | 0.00 | 0.00 | 68 | 1017.3 |
| 20260505030527 | 49 | 107 | 1.0 | 5.0 | 0.00 | 0.00 | 0.00 | 67 | 1017.3 |
| 20260505030039 | 49 | 105 | 1.0 | 5.0 | 0.00 | 0.00 | 0.00 | 67 | 1017.4 |
| 20260505025530 | 50 | 114 | 1.0 | 5.0 | 0.00 | 0.00 | 0.00 | 65 | 1017.4 |
| 20260505025026 | 50 | 105 | 1.0 | 9.0 | 0.00 | 0.00 | 0.00 | 65 | 1017.3 |
| 20260505024602 | 50 | 105 | 2.0 | 9.0 | 0.00 | 0.00 | 0.00 | 64 | 1017.4 |
| 20260505024027 | 50 | 79 | 2.0 | 6.0 | 0.00 | 0.00 | 0.00 | 65 | 1017.4 |
| 20260505023527 | 50 | 103 | 2.0 | 5.0 | 0.00 | 0.00 | 0.00 | 66 | 1017.5 |
| 20260505023044 | 49 | 119 | 2.0 | 5.0 | 0.00 | 0.00 | 0.00 | 67 | 1017.3 |
| 20260505022527 | 49 | 150 | 1.0 | 3.0 | 0.00 | 0.00 | 0.00 | 67 | 1017.4 |
| 20260505022027 | 50 | 97 | 1.0 | 4.0 | 0.00 | 0.00 | 0.00 | 66 | 1017.5 |
| 20260505021556 | 51 | 165 | 1.0 | 5.0 | 0.00 | 0.00 | 0.00 | 63 | 1017.6 |
| 20260505021027 | 51 | 127 | 2.0 | 7.0 | 0.00 | 0.00 | 0.00 | 62 | 1017.5 |
| 20260505020526 | 52 | 91 | 2.0 | 7.0 | 0.00 | 0.00 | 0.00 | 62 | 1017.5 |
| 20260505020445 | 52 | 107 | 2.0 | 7.0 | 0.00 | 0.00 | 0.00 | 62 | 1017.6 |
| 20260505015530 | 51 | 68 | 2.0 | 5.0 | 0.00 | 0.00 | 0.00 | 63 | 1017.6 |
| 20260505015027 | 51 | 106 | 1.0 | 6.0 | 0.00 | 0.00 | 0.00 | 60 | 1017.7 |
| 20260505014539 | 53 | 0 | 0.0 | 9.0 | 0.00 | 0.00 | 0.00 | 59 | 1017.7 |
| 20260505014029 | 53 | 92 | 3.0 | 9.0 | 0.00 | 0.00 | 0.00 | 57 | 1017.7 |
| 20260505013527 | 53 | 72 | 4.0 | 9.0 | 0.00 | 0.00 | 0.00 | 58 | 1017.7 |
| 20260505013045 | 53 | 100 | 5.0 | 9.0 | 0.00 | 0.00 | 0.00 | 58 | 1017.7 |
| 20260505012526 | 53 | 93 | 5.0 | 8.0 | 0.00 | 0.00 | 0.00 | 58 | 1017.6 |
| 20260505012030 | 53 | 68 | 5.0 | 8.0 | 0.00 | 0.00 | 0.00 | 58 | 1017.7 |
| 20260505011553 | 53 | 103 | 5.0 | 9.0 | 0.00 | 0.00 | 0.00 | 59 | 1017.8 |
| 20260505011027 | 53 | 90 | 4.0 | 9.0 | 0.00 | 0.00 | 0.00 | 59 | 1017.7 |
| 20260505010530 | 52 | 60 | 4.0 | 9.0 | 0.00 | 0.00 | 0.00 | 59 | 1017.8 |
| 20260505010043 | 52 | 86 | 2.0 | 6.0 | 0.00 | 0.00 | 0.00 | 61 | 1017.9 |
| 20260505005527 | 52 | 134 | 2.0 | 6.0 | 0.00 | 0.00 | 0.00 | 61 | 1017.9 |
| 20260505005027 | 52 | 102 | 3.0 | 6.0 | 0.00 | 0.00 | 0.00 | 61 | 1017.8 |
| 20260505004544 | 51 | 101 | 2.0 | 6.0 | 0.00 | 0.00 | 0.00 | 62 | 1017.9 |
| 20260505004027 | 51 | 107 | 1.0 | 6.0 | 0.00 | 0.00 | 0.00 | 61 | 1017.9 |
| 20260505003526 | 51 | 103 | 3.0 | 6.0 | 0.00 | 0.00 | 0.00 | 62 | 1018.0 |
| 20260505003038 | 51 | 100 | 2.0 | 4.0 | 0.00 | 0.00 | 0.00 | 62 | 1018.1 |
| 20260505002526 | 51 | 83 | 1.0 | 4.0 | 0.00 | 0.00 | 0.00 | 63 | 1018.2 |
| 20260505002028 | 51 | 75 | 1.0 | 4.0 | 0.00 | 0.00 | 0.00 | 63 | 1018.2 |
| 20260505001539 | 51 | 103 | 1.0 | 5.0 | 0.00 | 0.00 | 0.00 | 64 | 1018.3 |
| 20260505001026 | 51 | 91 | 1.0 | 5.0 | 0.00 | 0.00 | 0.00 | 64 | 1018.1 |
| 20260505000527 | 51 | 115 | 3.0 | 5.0 | 0.00 | 0.00 | 0.00 | 64 | 1018.1 |
| 20260505000046 | 51 | 106 | 1.0 | 5.0 | 0.00 | 0.00 | 0.00 | 64 | 1018.1 |
| 20260504235527 | 51 | 108 | 2.0 | 5.0 | 0.00 | 0.00 | 0.00 | 64 | 1018.2 |
| 20260504235027 | 51 | 129 | 1.0 | 5.0 | 0.00 | 0.00 | 0.00 | 63 | 1018.2 |
| 20260504234542 | 52 | 129 | 1.0 | 7.0 | 0.00 | 0.00 | 0.00 | 61 | 1018.2 |
| 20260504234027 | 53 | 115 | 3.0 | 8.0 | 0.00 | 0.00 | 0.00 | 59 | 1018.2 |
| 20260504233527 | 53 | 70 | 5.0 | 9.0 | 0.00 | 0.00 | 0.00 | 59 | 1018.1 |
| 20260504233054 | 53 | 58 | 5.0 | 11.0 | 0.00 | 0.00 | 0.00 | 59 | 1018.2 |
| 20260504232527 | 53 | 65 | 6.0 | 11.0 | 0.00 | 0.00 | 0.00 | 59 | 1018.2 |
| 20260504232026 | 53 | 58 | 5.0 | 10.0 | 0.00 | 0.00 | 0.00 | 59 | 1018.2 |
| 20260504231538 | 54 | 5 | 5.0 | 10.0 | 0.00 | 0.00 | 0.00 | 59 | 1018.2 |
| 20260504231026 | 54 | 83 | 5.0 | 9.0 | 0.00 | 0.00 | 0.00 | 59 | 1018.2 |
| 20260504230526 | 54 | 41 | 4.0 | 9.0 | 0.00 | 0.00 | 0.00 | 59 | 1018.3 |
| 20260504230039 | 54 | 84 | 5.0 | 10.0 | 0.00 | 0.00 | 0.00 | 59 | 1018.2 |
| 20260504225530 | 54 | 68 | 6.0 | 10.0 | 0.00 | 0.00 | 0.00 | 58 | 1018.3 |
| 20260504225026 | 54 | 81 | 5.0 | 9.0 | 0.00 | 0.00 | 0.00 | 58 | 1018.4 |
| 20260504224538 | 54 | 79 | 4.0 | 9.0 | 0.00 | 0.00 | 0.00 | 57 | 1018.5 |
| 20260504224026 | 54 | 86 | 4.0 | 9.0 | 0.00 | 0.00 | 0.00 | 57 | 1018.5 |
| 20260504223524 | 54 | 86 | 4.0 | 9.0 | 0.00 | 0.00 | 0.00 | 57 | 1018.5 |
| 20260504223044 | 54 | 108 | 4.0 | 10.0 | 0.00 | 0.00 | 0.00 | 56 | 1018.5 |
| 20260504222526 | 55 | 80 | 4.0 | 10.0 | 0.00 | 0.00 | 0.00 | 55 | 1018.5 |
| 20260504222023 | 55 | 70 | 4.0 | 7.0 | 0.00 | 0.00 | 0.00 | 55 | 1018.7 |
| 20260504221546 | 55 | 75 | 4.0 | 6.0 | 0.00 | 0.00 | 0.00 | 55 | 1018.6 |
| 20260504221027 | 55 | 70 | 3.0 | 6.0 | 0.00 | 0.00 | 0.00 | 55 | 1018.8 |
| 20260504220526 | 55 | 77 | 3.0 | 6.0 | 0.00 | 0.00 | 0.00 | 55 | 1018.8 |
| 20260504220056 | 55 | 83 | 3.0 | 8.0 | 0.00 | 0.00 | 0.00 | 55 | 1018.7 |
| 20260504215524 | 55 | 71 | 3.0 | 8.0 | 0.00 | 0.00 | 0.00 | 55 | 1018.6 |
| 20260504215024 | 55 | 89 | 4.0 | 8.0 | 0.00 | 0.00 | 0.00 | 55 | 1018.5 |
| 20260504214542 | 55 | 64 | 4.0 | 9.0 | 0.00 | 0.00 | 0.00 | 55 | 1018.5 |
| 20260504214026 | 55 | 82 | 4.0 | 9.0 | 0.00 | 0.00 | 0.00 | 55 | 1018.4 |
| 20260504213525 | 55 | 82 | 4.0 | 8.0 | 0.00 | 0.00 | 0.00 | 55 | 1018.5 |
| 20260504213045 | 55 | 79 | 4.0 | 9.0 | 0.00 | 0.00 | 0.00 | 54 | 1018.4 |
| 20260504212527 | 55 | 70 | 5.0 | 9.0 | 0.00 | 0.00 | 0.00 | 54 | 1018.4 |
| 20260504212027 | 55 | 94 | 4.0 | 8.0 | 0.00 | 0.00 | 0.00 | 54 | 1018.4 |
| 20260504211541 | 55 | 77 | 3.0 | 7.0 | 0.00 | 0.00 | 0.00 | 55 | 1018.5 |
| 20260504211027 | 55 | 72 | 3.0 | 7.0 | 0.00 | 0.00 | 0.00 | 55 | 1018.5 |
| 20260504210527 | 55 | 89 | 3.0 | 7.0 | 0.00 | 0.00 | 0.00 | 55 | 1018.6 |
| 20260504210041 | 55 | 77 | 3.0 | 6.0 | 0.00 | 0.00 | 0.00 | 56 | 1018.5 |
| 20260504205527 | 55 | 89 | 2.0 | 6.0 | 0.00 | 0.00 | 0.00 | 57 | 1018.6 |
| 20260504205027 | 55 | 103 | 2.0 | 6.0 | 0.00 | 0.00 | 0.00 | 56 | 1018.6 |
| 20260504204556 | 55 | 86 | 2.0 | 6.0 | 0.00 | 0.00 | 0.00 | 56 | 1018.6 |
| 20260504204027 | 55 | 60 | 2.0 | 6.0 | 0.00 | 0.00 | 0.00 | 56 | 1018.6 |
| 20260504203528 | 55 | 45 | 3.0 | 5.0 | 0.00 | 0.00 | 0.00 | 57 | 1018.6 |
| 20260504203038 | 55 | 72 | 2.0 | 4.0 | 0.00 | 0.00 | 0.00 | 60 | 1018.6 |
| 20260504202528 | 53 | 98 | 1.0 | 3.0 | 0.00 | 0.00 | 0.00 | 64 | 1018.7 |
| 20260504202027 | 52 | 91 | 0.0 | 2.0 | 0.00 | 0.00 | 0.00 | 69 | 1018.7 |
| 20260504201539 | 52 | 118 | 0.0 | 2.0 | 0.00 | 0.00 | 0.00 | 72 | 1018.6 |
| 20260504201027 | 51 | 0 | 0.0 | 0.0 | 0.00 | 0.00 | 0.00 | 74 | 1018.6 |
| 20260504200528 | 51 | 0 | 0.0 | 0.0 | 0.00 | 0.00 | 0.00 | 74 | 1018.6 |
| 20260504200043 | 51 | 0 | 0.0 | 0.0 | 0.00 | 0.00 | 0.00 | 74 | 1018.6 |
| 20260504195527 | 51 | 0 | 0.0 | 0.0 | 0.00 | 0.00 | 0.00 | 73 | 1018.5 |
| 20260504195027 | 51 | 0 | 0.0 | 0.0 | 0.00 | 0.00 | 0.00 | 73 | 1018.6 |
| 20260504194544 | 51 | 0 | 0.0 | 0.0 | 0.00 | 0.00 | 0.00 | 73 | 1018.6 |
| 20260504194024 | 51 | 0 | 0.0 | 0.0 | 0.00 | 0.00 | 0.00 | 72 | 1018.5 |
| 20260504193527 | 51 | 0 | 0.0 | 0.0 | 0.00 | 0.00 | 0.00 | 72 | 1018.5 |
| 20260504193039 | 52 | 0 | 0.0 | 0.0 | 0.00 | 0.00 | 0.00 | 71 | 1018.4 |
| 20260504192526 | 52 | 0 | 0.0 | 0.0 | 0.00 | 0.00 | 0.00 | 70 | 1018.4 |
| 20260504192026 | 52 | 0 | 0.0 | 0.0 | 0.00 | 0.00 | 0.00 | 70 | 1018.3 |
| 20260504191541 | 52 | 0 | 0.0 | 0.0 | 0.00 | 0.00 | 0.00 | 70 | 1018.3 |
| 20260504191030 | 53 | 0 | 0.0 | 0.0 | 0.00 | 0.00 | 0.00 | 70 | 1018.3 |
| 20260504190529 | 53 | 0 | 0.0 | 0.0 | 0.00 | 0.00 | 0.00 | 70 | 1018.2 |
| 20260504190039 | 52 | 0 | 0.0 | 0.0 | 0.00 | 0.00 | 0.00 | 70 | 1018.2 |
| 20260504185527 | 53 | 0 | 0.0 | 0.0 | 0.00 | 0.00 | 0.00 | 69 | 1018.3 |
| 20260504185028 | 53 | 0 | 0.0 | 0.0 | 0.00 | 0.00 | 0.00 | 68 | 1018.2 |
| 20260504184541 | 54 | 0 | 0.0 | 0.0 | 0.00 | 0.00 | 0.00 | 67 | 1018.2 |
| 20260504184028 | 54 | 0 | 0.0 | 0.0 | 0.00 | 0.00 | 0.00 | 66 | 1018.1 |
| 20260504183528 | 54 | 0 | 0.0 | 0.0 | 0.00 | 0.00 | 0.00 | 66 | 1018.0 |
| 20260504183040 | 55 | 0 | 0.0 | 0.0 | 0.00 | 0.00 | 0.00 | 64 | 1018.1 |
| 20260504182527 | 55 | 0 | 0.0 | 0.0 | 0.00 | 0.00 | 0.00 | 62 | 1018.0 |
| 20260504182026 | 56 | 0 | 0.0 | 0.0 | 0.00 | 0.00 | 0.00 | 61 | 1018.0 |
| 20260504181543 | 56 | 0 | 0.0 | 0.0 | 0.00 | 0.00 | 0.00 | 61 | 1017.9 |
| 20260504181029 | 57 | 0 | 0.0 | 0.0 | 0.00 | 0.00 | 0.00 | 60 | 1018.0 |
| 20260504180527 | 57 | 0 | 0.0 | 0.0 | 0.00 | 0.00 | 0.00 | 59 | 1018.0 |
| 20260504180039 | 57 | 0 | 0.0 | 0.0 | 0.00 | 0.00 | 0.00 | 59 | 1017.9 |
| 20260504175526 | 58 | 0 | 0.0 | 0.0 | 0.00 | 0.00 | 0.00 | 58 | 1017.9 |
| 20260504175029 | 58 | 0 | 0.0 | 0.0 | 0.00 | 0.00 | 0.00 | 57 | 1017.9 |
| 20260504174538 | 59 | 0 | 0.0 | 0.0 | 0.00 | 0.00 | 0.00 | 54 | 1017.9 |
| 20260504174026 | 60 | 0 | 0.0 | 0.0 | 0.00 | 0.00 | 0.00 | 52 | 1017.8 |
| 20260504173526 | 61 | 0 | 0.0 | 0.0 | 0.00 | 0.00 | 0.00 | 52 | 1017.8 |
| 20260504173039 | 61 | 0 | 0.0 | 2.0 | 0.00 | 0.00 | 0.00 | 51 | 1017.8 |
| 20260504172528 | 60 | 0 | 0.0 | 3.0 | 0.00 | 0.00 | 0.00 | 52 | 1017.8 |
| 20260504172027 | 60 | 269 | 0.0 | 4.0 | 0.00 | 0.00 | 0.00 | 52 | 1017.7 |
| 20260504171539 | 61 | 283 | 1.0 | 4.0 | 0.00 | 0.00 | 0.00 | 51 | 1017.6 |
| 20260504171028 | 61 | 289 | 0.0 | 4.0 | 0.00 | 0.00 | 0.00 | 50 | 1017.7 |
| 20260504170527 | 62 | 0 | 1.0 | 4.0 | 0.00 | 0.00 | 0.00 | 49 | 1017.7 |
| 20260504151027 | 65 | 246 | 4.0 | 12.0 | 0.00 | 0.00 | 0.00 | 43 | 1017.9 |
| 20260504150529 | 65 | 298 | 4.0 | 12.0 | 0.00 | 0.00 | 0.00 | 43 | 1017.9 |
| 20260504141026 | 66 | 264 | 5.0 | 12.0 | 0.00 | 0.00 | 0.00 | 43 | 1017.9 |
| 20260504140527 | 66 | 289 | 6.0 | 11.0 | 0.00 | 0.00 | 0.00 | 42 | 1018.0 |
| 20260504130524 | 65 | 248 | 6.0 | 14.0 | 0.00 | 0.00 | 0.00 | 45 | 1018.4 |
| 20260504110527 | 66 | 283 | 4.0 | 12.0 | 0.00 | 0.00 | 0.00 | 43 | 1019.1 |
| 20260504100528 | 66 | 285 | 3.0 | 8.0 | 0.00 | 0.00 | 0.00 | 46 | 1019.7 |
| 20260504081548 | 64 | 151 | 1.0 | 8.0 | 0.00 | 0.00 | 0.00 | 44 | 1020.0 |
| 20260504081028 | 63 | 251 | 2.0 | 8.0 | 0.00 | 0.00 | 0.00 | 43 | 1020.0 |
| 20260504080527 | 63 | 162 | 3.0 | 8.0 | 0.00 | 0.00 | 0.00 | 47 | 1019.9 |